Temperature
12 12 12 12 12 12 12 12 12 13 13 13 13 14 14 14 14 14 14 14 15 15 15 15 15 15 15 15 15 15 15 15 15 15 15 15 15 15 15 15 15 15 15
12 12 12 11 11 12 12 12 12 12 12 13 13 13 13 13 14 14 14 14 14 14 14 14 14 15 14 14 14 14 14 14 14 14 14 14 14 14 14 14 14 14 14
12 11 11 11 11 11 11 11 12 12 12 12 12 13 13 13 13 13 13 13 14 14 14 14 14 14 14 14 14 14 14 14 14 14 14 14 14 14 14 14 14 14 14
12 11 11 11 11 11 11 11 11 11 12 12 12 12 12 12 13 13 13 13 13 13 13 14 14 14 14 14 14 14 14 14 14 14 14 14 14 14 14 14 13 13 13
12 11 11 11 11 11 11 11 11 11 11 11 11 12 12 12 12 12 13 13 13 13 13 13 13 13 13 13 13 14 14 14 14 14 14 13 13 13 13 13 13 13 13
12 11 11 11 11 11 11 11 11 11 11 11 11 11 11 12 12 12 12 12 12 12 13 13 13 13 13 13 13 13 13 14 14 14 14 14 14 14 14 13 13 13 12
12 11 11 11 11 10 10 10 10 10 10 10 10 11 11 11 11 12 12 12 12 12 12 12 12 13 13 13 13 13 13 13 14 14 14 14 14 14 13 13 13 13 13
12 11 11 11 10 10 10 10 10 10 10 10 10 10 10 10 11 11 11 11 11 12 12 12 12 12 13 13 13 13 13 14 14 14 14 14 14 14 14 13 13 13 12
12 11 11 11 10 10 10 10 10 9 9 9 9 9 10 10 10 11 11 11 11 11 11 12 12 12 12 13 13 13 13 13 14 14 14 14 14 13 13 13 13 13 12
12 11 11 11 11 10 10 10 10 9 9 9 9 9 9 10 10 10 10 11 11 11 11 11 12 12 12 13 13 13 13 13 13 13 13 13 13 13 13 13 13 13 12
12 11 11 11 11 10 10 10 10 9 9 9 9 9 9 9 9 10 10 10 10 11 11 11 12 12 12 12 13 13 13 13 13 13 13 13 13 13 13 13 13 13 12
12 11 11 11 11 10 10 10 10 10 9 9 9 9 9 9 9 9 10 10 10 11 11 11 11 12 12 12 13 13 13 13 13 13 13 13 13 13 12 12 12 12 12
12 12 11 11 11 11 10 10 10 10 10 9 9 9 9 9 9 9 10 10 10 10 11 11 11 12 12 12 12 13 13 13 13 13 13 12 12 12 12 12 12 12 12
12 12 12 11 11 11 11 10 10 10 10 10 9 9 9 9 10 10 10 10 10 10 10 11 11 11 12 12 12 12 12 12 13 13 13 12 12 12 12 12 12 12 12
13 13 12 12 11 11 11 11 10 10 10 10 10 10 10 10 10 10 10 10 10 10 10 11 11 11 12 12 12 12 12 12 12 12 12 12 12 12 12 11 11 11 11
14 14 13 12 12 12 11 11 11 10 10 10 10 10 10 10 10 10 10 10 10 10 10 10 11 11 11 12 12 12 12 12 12 12 12 12 12 12 11 11 11 11 11
14 14 13 13 12 12 12 11 11 11 11 10 10 10 10 10 10 10 10 10 10 10 10 10 10 11 11 11 11 12 12 12 12 12 12 11 11 11 11 11 10 10 10
14 14 13 13 12 12 12 12 12 11 11 11 11 11 11 10 10 10 10 10 10 10 10 10 10 10 11 11 11 11 11 11 11 11 11 11 11 11 11 10 10 10 10
14 14 13 13 13 12 12 12 12 12 11 11 11 11 11 10 10 10 10 10 10 10 10 10 10 10 10 11 11 11 11 11 11 11 11 11 11 11 10 10 10 10 9
14 14 14 13 13 13 13 12 12 12 12 12 11 11 11 11 10 10 10 10 10 10 10 10 10 10 10 11 11 11 11 11 11 11 11 11 10 10 10 10 10 9 9
14 14 14 14 13 13 13 13 13 13 12 12 12 12 11 11 11 10 10 11 10 10 10 10 10 10 10 11 10 10 10 10 10 10 10 10 10 10 10 9 9 9 9
14 14 14 14 13 13 13 13 13 13 13 12 12 12 12 11 11 11 11 11 11 11 11 11 11 11 11 11 11 10 10 10 10 10 10 10 10 9 9 9 9 9 9
14 14 14 13 13 13 13 13 13 13 13 13 12 12 12 12 11 11 11 11 11 11 12 11 11 11 11 11 11 11 10 10 10 10 9 9 9 9 9 9 9 8 8
15 14 14 13 13 13 13 13 13 13 13 13 13 12 12 12 12 11 11 11 11 12 12 12 12 12 12 12 11 11 11 11 10 10 10 9 9 9 8 8 8 8 8
15 14 14 13 13 13 13 13 13 13 13 13 13 13 12 12 12 12 11 11 12 12 12 12 12 12 12 12 12 12 12 11 11 11 10 10 9 9 8 8 8 8 8
15 14 14 14 13 13 13 13 13 13 13 13 13 13 12 12 12 12 12 12 12 12 12 12 12 12 12 12 12 12 12 12 12 11 11 10 10 9 9 8 8 8 8
Wind_Speed
7 7 7 7 8 8 8 8 7 7 8 8 7 6 6 5 4 3 2 3 2 2 3 4 5 5 5 5 5 5 4 4 4 2 2 3 3 3 4 5 8 10 10
6 7 6 7 8 9 9 9 9 9 8 8 8 8 8 8 7 5 4 4 3 3 2 4 4 4 5 5 5 5 4 4 4 4 2 2 3 3 3 3 5 8 10
6 7 7 7 8 8 9 9 9 9 8 8 8 9 9 9 8 7 6 4 3 3 3 3 4 5 5 4 5 5 4 4 3 4 3 2 2 3 3 3 5 6 10
5 6 7 7 8 8 8 9 9 9 9 9 9 9 9 9 10 9 7 5 5 4 4 4 4 4 4 5 5 5 4 4 4 4 4 3 3 3 4 4 5 5 6
6 7 7 7 7 7 8 8 8 9 10 9 9 9 9 9 10 10 8 5 4 4 4 4 4 5 5 4 4 4 5 4 4 4 4 3 3 4 4 4 6 7 6
6 6 6 7 7 8 8 8 8 8 9 9 9 8 9 9 13 14 10 5 3 4 4 4 3 4 5 6 7 6 5 5 5 4 3 4 4 4 4 6 7 7 4
6 6 6 7 7 7 8 8 8 7 7 8 8 8 7 10 15 15 14 5 3 3 3 3 3 4 4 4 5 6 6 4 4 4 4 4 5 6 7 7 7 6 5
6 5 6 6 7 6 6 7 7 6 6 6 7 7 6 10 16 16 15 5 3 4 4 4 4 4 5 5 3 6 7 6 3 3 4 3 4 5 6 7 9 9 8
5 5 6 6 6 6 6 6 5 5 5 5 5 6 7 8 15 15 14 4 3 4 4 5 5 5 7 6 5 8 8 7 11 14 13 12 14 12 10 9 9 10 7
5 6 6 5 5 6 6 5 5 4 5 4 4 5 6 6 12 15 13 5 4 3 4 5 8 7 7 6 4 7 8 7 7 8 8 10 10 11 11 7 7 9 7
5 5 5 5 4 4 5 5 5 5 5 5 4 5 5 7 10 14 13 6 5 3 4 4 4 7 7 5 3 4 7 7 6 7 7 7 7 7 7 7 7 7 6
3 3 3 4 4 4 3 3 4 5 5 5 5 5 5 6 8 11 12 9 7 4 4 4 4 6 6 6 5 6 8 7 6 6 7 6 7 7 7 7 11 11 9
3 1 0 1 2 3 4 5 5 5 5 5 5 5 4 5 8 14 13 10 9 5 4 5 5 6 6 5 6 6 6 5 6 7 7 6 6 7 6 7 9 12 13
3 2 2 0 2 3 3 4 4 5 5 6 6 6 5 5 7 8 8 6 6 5 3 4 6 7 6 5 4 5 5 6 6 7 6 6 5 5 5 5 6 6 7
4 5 4 2 2 1 2 2 3 3 3 2 4 5 5 5 7 9 6 5 5 4 3 2 2 3 3 4 4 4 5 5 6 5 6 5 5 5 4 4 4 5 5
3 2 2 2 2 1 2 2 2 2 3 2 2 3 2 4 7 9 9 10 9 8 4 3 3 3 4 4 4 4 4 5 4 5 6 5 5 5 4 3 4 5 6
4 1 2 1 1 2 2 3 3 2 2 2 2 1 2 4 6 8 9 10 8 6 4 4 4 4 4 4 3 4 4 3 4 5 5 5 5 5 4 4 4 5 5
5 1 2 2 2 2 1 1 1 2 3 3 4 5 3 2 5 7 8 6 4 4 4 4 3 3 3 3 3 3 3 3 4 4 5 4 4 4 4 4 4 5 5
4 2 2 2 2 3 2 2 2 2 2 3 4 3 5 4 4 6 6 2 3 3 3 3 3 3 3 2 2 3 3 3 4 4 4 4 4 4 4 4 5 5 4
3 2 2 2 3 4 4 4 3 3 3 2 3 4 3 3 2 1 0 2 2 3 3 3 2 3 3 2 2 3 3 3 3 3 4 3 3 3 5 6 5 4 3
4 5 7 4 4 5 4 4 3 3 3 3 3 5 5 2 2 3 2 2 1 2 2 2 2 2 2 2 1 1 2 3 3 3 4 3 3 3 3 4 4 4 4
5 4 5 6 5 5 4 3 3 3 3 4 4 5 6 3 3 4 4 4 3 2 2 2 2 2 1 1 1 1 1 2 3 3 4 3 3 3 3 3 3 3 3
4 4 4 5 5 5 4 4 4 4 4 4 5 6 6 5 5 4 5 5 5 4 3 2 2 2 2 1 1 1 1 0 2 3 3 4 4 3 3 3 3 3 3
6 6 5 5 4 4 5 5 5 5 5 5 4 5 7 7 6 6 6 6 6 5 5 5 4 5 6 5 3 2 1 2 4 3 1 2 3 3 3 3 3 3 3
7 6 6 5 5 5 5 5 5 5 5 5 5 5 5 6 6 6 6 6 7 6 7 8 8 7 8 9 8 6 5 4 3 2 2 0 2 3 3 3 3 3 3
7 7 6 5 5 5 4 5 5 5 5 4 4 4 5 5 6 6 7 7 7 7 6 8 11 12 11 11 12 12 12 9 7 4 1 2 2 3 3 3 4 4 4
Wind_Direction
6 6 12 9 7 11 12 7 6 8 12 20 23 29 33 34 36 47 47 63 80 133 152 162 174 168 165 166 163 164 174 172 180 181 171 158 146 156 153 161 151 153 162
5 4 12 17 18 19 15 10 14 16 20 26 26 31 32 28 24 27 36 50 60 76 109 133 137 141 144 149 155 163 165 167 165 165 153 148 154 160 152 158 152 144 139
17 13 13 23 21 22 17 14 16 18 22 28 32 33 32 29 22 20 27 44 61 71 81 102 123 133 139 145 150 150 152 160 150 145 149 143 138 147 134 126 119 116 120
27 21 17 24 22 21 18 16 19 19 23 22 32 34 31 32 22 14 11 32 50 61 73 84 98 120 135 144 147 150 149 147 139 139 143 148 145 147 140 134 122 111 115
33 31 21 26 23 19 23 23 23 22 26 23 30 34 30 29 18 12 4 17 45 58 61 66 87 101 113 124 132 141 148 147 143 149 151 148 150 145 157 149 132 116 104
43 37 28 31 25 20 23 21 24 31 25 22 26 32 34 25 11 13 9 4 34 62 63 54 80 103 111 112 109 112 130 151 162 160 159 161 164 159 148 142 137 134 122
49 44 33 35 32 27 24 19 20 31 27 23 23 25 33 23 14 10 3 354 31 64 65 62 55 69 80 96 116 111 90 92 138 154 159 169 161 163 153 150 150 137 125
46 49 48 41 31 26 25 24 21 20 22 22 22 20 23 25 16 10 359 359 50 70 66 58 48 58 54 51 107 107 82 55 69 118 129 132 125 128 138 142 131 114 105
44 40 50 45 32 22 20 20 21 14 13 23 24 24 25 22 17 12 4 352 49 70 77 73 57 60 44 52 100 113 103 82 73 87 92 94 91 96 109 117 124 127 124
51 41 45 49 41 29 13 11 13 16 9 15 24 31 34 28 23 18 12 5 26 50 59 71 59 51 42 47 107 125 122 118 115 104 93 89 85 87 101 113 130 134 132
62 45 37 34 51 57 15 7 17 8 0 10 24 32 40 40 25 21 18 19 10 35 54 57 49 43 43 39 73 120 130 130 121 110 97 87 80 76 75 78 94 126 128
90 62 51 46 30 40 18 10 17 3 6 14 18 24 31 38 29 15 16 24 23 44 51 50 50 45 52 62 69 100 115 114 108 100 93 86 83 79 76 75 82 85 90
135 113 40 101 102 45 17 18 19 16 11 8 13 16 22 32 19 13 10 21 33 46 54 59 62 61 62 69 69 85 101 106 105 103 98 92 92 93 84 77 73 73 68
181 183 230 332 74 76 55 30 35 25 13 5 8 8 13 30 18 4 355 5 24 41 53 62 60 64 73 78 74 77 84 99 108 109 103 100 99 98 100 104 101 92 75
209 191 198 146 100 60 101 67 59 82 74 26 3 359 10 10 358 353 357 2 3 10 10 58 65 64 68 71 74 80 89 97 105 110 111 112 105 98 99 103 109 105 104
268 179 151 154 156 184 165 141 64 110 148 110 42 14 43 23 350 358 2 5 8 11 44 72 72 74 78 85 90 87 88 102 113 116 118 121 120 116 109 99 103 112 119
279 236 157 152 173 218 207 185 179 187 218 262 268 334 17 353 355 357 357 353 357 19 58 66 65 67 72 76 85 92 94 102 110 114 120 125 126 125 123 120 115 114 121
267 247 161 183 230 258 247 229 182 168 187 206 220 234 250 304 336 343 345 352 31 48 59 67 67 69 78 88 93 101 102 100 105 116 123 125 127 129 132 133 125 126 133
250 217 184 219 226 245 244 234 219 202 198 166 153 190 228 243 284 308 331 28 73 72 67 62 59 64 70 77 87 102 105 105 107 111 116 123 129 132 134 126 121 127 135
250 194 188 235 256 243 226 226 226 215 208 181 156 160 181 201 213 211 125 61 87 97 89 81 65 62 64 69 75 94 111 114 117 115 121 125 129 134 136 135 143 158 178
229 198 193 218 247 255 244 232 225 210 209 185 150 145 153 196 177 150 155 149 128 132 128 113 98 76 64 61 57 101 127 137 136 130 128 129 126 126 134 143 151 154 141
230 212 194 209 228 240 242 244 240 223 212 186 158 161 171 204 229 187 172 170 163 145 133 142 155 132 93 43 18 9 126 142 145 146 150 149 141 141 141 141 144 145 146
233 248 234 223 223 225 228 242 250 237 223 209 181 167 178 205 217 198 184 174 165 168 162 164 183 165 172 217 327 11 4 140 144 137 146 152 157 164 165 170 171 166 180
214 230 234 237 235 227 224 230 236 232 218 213 201 185 184 193 197 193 186 173 170 175 178 186 204 200 186 183 202 247 328 61 73 70 100 155 169 174 169 164 172 195 198
207 219 221 224 236 232 228 235 241 239 223 210 206 202 195 189 190 188 182 176 175 183 187 190 199 209 204 191 195 198 184 166 142 60 14 60 183 175 169 177 186 203 194
200 212 216 215 223 234 238 242 245 245 236 219 208 205 201 197 194 189 182 178 181 187 189 193 199 203 207 209 210 200 189 186 193 205 248 301 229 197 186 200 208 206 207
Height
1518 1515 1511 1508 1505 1502 1500 1497 1496 1494 1493 1492 1491 1490 1490 1489 1489 1489 1490 1491 1492 1494 1496 1498 1501 1503 1506 1509 1512 1515 1518 1522 1525 1527 1530 1532 1535 1537 1540 1543 1545 1548 1551
1520 1517 1514 1511 1507 1505 1502 1500 1498 1496 1494 1493 1492 1491 1491 1490 1490 1490 1490 1491 1492 1494 1495 1497 1499 1501 1504 1507 1509 1512 1515 1518 1522 1524 1526 1529 1532 1534 1537 1539 1542 1545 1548
1521 1518 1516 1513 1510 1507 1505 1502 1500 1498 1497 1495 1494 1493 1492 1491 1491 1491 1491 1492 1493 1494 1495 1497 1498 1500 1503 1505 1508 1510 1513 1516 1519 1522 1524 1527 1530 1532 1535 1538 1540 1543 1545
1523 1520 1517 1515 1512 1510 1507 1505 1502 1500 1498 1497 1495 1494 1493 1493 1492 1492 1492 1493 1493 1494 1495 1496 1498 1500 1502 1504 1507 1509 1512 1514 1517 1520 1523 1525 1528 1530 1533 1536 1538 1541 1544
1524 1521 1519 1517 1514 1512 1509 1507 1504 1502 1500 1499 1497 1496 1494 1493 1493 1493 1493 1493 1494 1494 1495 1496 1498 1499 1501 1503 1506 1508 1511 1513 1516 1518 1521 1524 1526 1528 1531 1534 1537 1540 1543
1526 1523 1521 1518 1516 1513 1511 1509 1507 1504 1502 1500 1499 1497 1496 1494 1494 1493 1493 1493 1494 1495 1495 1496 1497 1499 1501 1503 1506 1508 1510 1513 1515 1517 1520 1522 1525 1527 1530 1533 1536 1539 1542
1527 1524 1522 1520 1517 1515 1513 1510 1508 1506 1504 1502 1500 1499 1497 1496 1495 1494 1494 1494 1494 1495 1495 1496 1498 1499 1500 1502 1505 1507 1510 1512 1515 1517 1519 1522 1524 1526 1529 1532 1535 1538 1541
1528 1526 1524 1521 1519 1517 1514 1512 1510 1508 1506 1504 1502 1500 1498 1497 1495 1494 1494 1495 1495 1495 1496 1496 1497 1499 1500 1502 1505 1507 1509 1512 1514 1517 1519 1521 1524 1526 1528 1531 1534 1538 1541
1529 1527 1525 1523 1521 1518 1516 1514 1512 1510 1508 1506 1504 1502 1500 1498 1496 1495 1495 1495 1496 1496 1496 1497 1498 1499 1501 1503 1505 1507 1510 1513 1515 1518 1520 1522 1524 1526 1528 1531 1534 1537 1540
1530 1529 1527 1524 1522 1520 1518 1516 1514 1512 1510 1508 1506 1504 1502 1500 1498 1496 1496 1496 1496 1497 1497 1498 1499 1500 1502 1504 1506 1508 1511 1514 1516 1519 1521 1523 1525 1527 1530 1532 1534 1537 1539
1531 1529 1528 1526 1524 1521 1519 1518 1516 1514 1512 1510 1508 1506 1504 1501 1499 1498 1497 1497 1497 1497 1498 1499 1500 1501 1503 1505 1508 1510 1513 1515 1518 1520 1523 1525 1527 1529 1531 1533 1536 1538 1540
1531 1530 1529 1527 1525 1523 1521 1519 1517 1515 1514 1512 1510 1508 1506 1503 1501 1500 1499 1498 1498 1498 1499 1500 1502 1503 1505 1507 1509 1512 1515 1517 1520 1522 1524 1527 1529 1531 1533 1535 1537 1539 1541
1532 1531 1530 1528 1527 1525 1523 1521 1519 1517 1515 1513 1511 1509 1507 1505 1503 1502 1501 1500 1500 1500 1501 1502 1504 1505 1507 1509 1512 1514 1517 1520 1522 1524 1526 1528 1530 1532 1534 1536 1538 1540 1541
1532 1531 1530 1529 1528 1526 1524 1522 1520 1518 1516 1514 1512 1511 1509 1507 1505 1504 1503 1502 1502 1503 1503 1505 1506 1508 1510 1512 1514 1517 1519 1522 1524 1526 1528 1530 1532 1534 1535 1537 1539 1540 1542
1532 1531 1530 1529 1528 1527 1525 1524 1522 1520 1517 1515 1514 1512 1510 1508 1507 1506 1505 1505 1505 1505 1506 1507 1509 1511 1512 1514 1516 1519 1521 1524 1526 1528 1530 1532 1533 1535 1537 1538 1539 1541 1542
1531 1531 1530 1529 1528 1527 1526 1524 1523 1521 1519 1517 1515 1513 1512 1511 1509 1509 1508 1508 1508 1509 1509 1510 1511 1513 1515 1517 1519 1521 1523 1525 1528 1530 1531 1533 1535 1536 1538 1539 1540 1541 1542
1530 1530 1529 1528 1528 1527 1526 1525 1524 1522 1521 1519 1517 1516 1514 1513 1512 1511 1511 1511 1511 1512 1512 1513 1514 1515 1517 1519 1521 1523 1525 1527 1529 1531 1532 1534 1535 1537 1538 1539 1541 1542 1542
1528 1528 1527 1527 1526 1526 1526 1525 1524 1523 1521 1520 1519 1517 1516 1515 1514 1514 1514 1514 1514 1514 1515 1516 1517 1518 1519 1521 1522 1524 1526 1528 1530 1531 1533 1534 1536 1537 1538 1539 1540 1541 1542
1525 1525 1525 1525 1525 1525 1525 1524 1524 1523 1522 1520 1519 1518 1517 1517 1516 1516 1516 1516 1516 1516 1517 1518 1519 1520 1521 1522 1524 1525 1527 1528 1530 1531 1533 1534 1535 1537 1538 1539 1540 1541 1541
1522 1522 1522 1522 1522 1523 1523 1523 1523 1522 1522 1521 1520 1518 1518 1517 1517 1517 1516 1517 1517 1517 1518 1519 1520 1521 1522 1523 1524 1525 1527 1528 1530 1531 1532 1533 1535 1536 1537 1538 1538 1539 1540
1519 1519 1519 1519 1519 1520 1521 1521 1521 1521 1520 1520 1519 1518 1518 1517 1517 1517 1517 1517 1517 1517 1518 1519 1520 1521 1522 1523 1524 1525 1527 1528 1529 1530 1531 1532 1533 1534 1535 1536 1537 1538 1538
1516 1516 1516 1516 1516 1517 1518 1518 1518 1519 1519 1518 1518 1517 1517 1516 1516 1516 1516 1516 1516 1517 1517 1518 1519 1520 1521 1522 1523 1524 1525 1526 1527 1528 1529 1530 1531 1532 1533 1534 1535 1535 1536
1511 1512 1513 1513 1513 1514 1514 1515 1515 1515 1516 1516 1516 1515 1515 1515 1515 1515 1515 1515 1515 1515 1516 1516 1517 1518 1519 1520 1521 1522 1523 1524 1525 1526 1527 1527 1528 1529 1530 1531 1532 1532 1533
1506 1507 1508 1509 1510 1510 1510 1511 1511 1512 1513 1513 1513 1513 1513 1513 1513 1513 1513 1513 1513 1513 1514 1514 1515 1515 1516 1517 1518 1519 1520 1521 1522 1523 1524 1524 1525 1526 1527 1528 1529 1529 1530
1501 1502 1503 1504 1505 1506 1506 1507 1508 1508 1509 1509 1510 1510 1510 1510 1510 1511 1511 1511 1511 1511 1511 1512 1512 1513 1513 1514 1515 1515 1516 1517 1518 1519 1520 1521 1522 1523 1524 1524 1525 1526 1527
1495 1496 1497 1498 1499 1500 1501 1502 1503 1504 1505 1505 1506 1506 1507 1507 1507 1508 1508 1508 1508 1508 1508 1509 1509 1510 1510 1511 1511 1512 1512 1513 1514 1515 1516 1517 1518 1518 1519 1520 1521 1522 1523